FLOCK 4BE-36

Last updated on Mon Sep 16 2024 00:02:03 GMT+0000 (Coordinated Universal Time)

1 60486U 24149U 24259.16772264 .00018956 00000+0 92263-3 0 9994 2 60486 97.4386 334.2493 0006536 22.7201 337.4322 15.18406345 4459
UTC large
Height (km)
Speed (km/s)
/
Latitude / Longitude
Inclination (degrees)
Orbital Period (minutes)
Azimuth
Elevation
Range (km)
Doppler Factor

Next 0 passes for location: London (51.5072 / 0.1276)

Sorry there are no passes over London.